Time,TemperatureF,DewpointF,PressureIn,WindDirection,WindDirectionDegrees,WindSpeedMPH,WindSpeedGustMPH,Humidity,HourlyPrecipIn,Conditions,Clouds,dailyrainin,SoftwareType,DateUTC
2013-10-09 00:00:00,43.4,42.9,30.37,NNE,14,0.0,0.0,98,0.00,CLR,,0.00,WeatherDisplay:10.37,2013-10-09 04:00:00,
2013-10-09 00:05:00,43.2,42.7,30.38,NNE,14,0.0,0.0,98,0.00,CLR,,0.00,WeatherDisplay:10.37,2013-10-09 04:05:00,
2013-10-09 00:10:00,43.0,42.5,30.38,NNE,14,0.0,0.0,98,0.00,CLR,,0.00,WeatherDisplay:10.37,2013-10-09 04:10:00,
2013-10-09 00:15:00,42.8,42.6,30.38,NNE,14,0.0,0.0,99,0.00,CLR,,0.00,WeatherDisplay:10.37,2013-10-09 04:15:00,
2013-10-09 00:20:00,42.8,42.5,30.38,NNE,14,0.0,0.0,99,0.00,CLR,,0.00,WeatherDisplay:10.37,2013-10-09 04:20:00,
2013-10-09 00:25:00,42.8,42.8,30.38,NNE,14,0.0,0.0,100,0.00,CLR,,0.00,WeatherDisplay:10.37,2013-10-09 04:25:00,
2013-10-09 00:30:00,43.0,43.0,30.38,NNE,14,0.0,0.0,100,0.00,CLR,,0.00,WeatherDisplay:10.37,2013-10-09 04:30:00,
2013-10-09 00:35:00,43.0,43.0,30.39,NNE,14,0.0,0.0,100,0.00,CLR,,0.00,WeatherDisplay:10.37,2013-10-09 04:35:00,
2013-10-09 00:45:00,42.9,42.9,30.38,NNE,14,0.0,0.0,100,0.00,CLR,,0.00,WeatherDisplay:10.37,2013-10-09 04:45:00,
2013-10-09 00:55:00,42.9,42.9,30.38,NNE,14,0.0,0.0,100,0.00,CLR,,0.00,WeatherDisplay:10.37,2013-10-09 04:55:00,
2013-10-09 01:00:00,42.8,42.8,30.38,NNE,14,0.0,0.0,100,0.00,CLR,,0.00,WeatherDisplay:10.37,2013-10-09 05:00:00,
2013-10-09 01:10:00,42.8,42.8,30.38,NNE,14,0.0,0.0,100,0.00,CLR,,0.00,WeatherDisplay:10.37,2013-10-09 05:10:00,
2013-10-09 01:15:00,42.7,42.7,30.38,NNE,14,0.0,0.0,100,0.00,CLR,,0.00,WeatherDisplay:10.37,2013-10-09 05:15:00,
2013-10-09 01:25:00,42.6,42.6,30.38,NNE,14,0.0,0.0,100,0.00,CLR,,0.00,WeatherDisplay:10.37,2013-10-09 05:25:00,
2013-10-09 01:30:00,42.6,42.6,30.39,NNE,14,0.0,0.0,100,0.00,CLR,,0.00,WeatherDisplay:10.37,2013-10-09 05:30:00,
2013-10-09 01:40:00,42.5,42.5,30.39,NNE,14,0.0,0.0,100,0.00,CLR,,0.00,WeatherDisplay:10.37,2013-10-09 05:40:00,
2013-10-09 01:45:00,42.5,42.5,30.38,NNE,14,0.0,0.0,100,0.00,CLR,,0.00,WeatherDisplay:10.37,2013-10-09 05:45:00,
2013-10-09 01:55:00,42.4,42.4,30.39,NNE,14,0.0,0.0,100,0.00,CLR,,0.00,WeatherDisplay:10.37,2013-10-09 05:55:00,
2013-10-09 02:00:00,42.3,42.3,30.39,NNE,14,0.0,0.0,100,0.00,CLR,,0.00,WeatherDisplay:10.37,2013-10-09 06:00:00,
2013-10-09 02:10:00,42.1,42.1,30.38,NNE,14,0.0,0.0,100,0.00,CLR,,0.00,WeatherDisplay:10.37,2013-10-09 06:10:00,
2013-10-09 02:15:00,42.1,42.1,30.38,NNE,14,0.0,0.0,100,0.00,CLR,,0.00,WeatherDisplay:10.37,2013-10-09 06:15:00,
2013-10-09 02:25:00,41.9,41.9,30.38,NNE,14,0.0,0.0,100,0.00,CLR,,0.00,WeatherDisplay:10.37,2013-10-09 06:25:00,
2013-10-09 02:30:00,41.8,41.8,30.38,NNE,14,0.0,0.0,100,0.00,CLR,,0.00,WeatherDisplay:10.37,2013-10-09 06:30:00,
2013-10-09 02:40:00,41.8,41.8,30.38,NNE,14,0.0,0.0,100,0.00,CLR,,0.00,WeatherDisplay:10.37,2013-10-09 06:40:00,
2013-10-09 02:45:00,41.6,41.6,30.38,NNE,14,0.0,0.0,100,0.00,CLR,,0.00,WeatherDisplay:10.37,2013-10-09 06:45:00,
2013-10-09 02:55:00,41.3,41.3,30.38,NNE,14,0.0,0.0,100,0.00,CLR,,0.00,WeatherDisplay:10.37,2013-10-09 06:55:00,
2013-10-09 03:00:00,41.3,41.3,30.38,NNE,14,0.0,0.0,100,0.00,CLR,,0.00,WeatherDisplay:10.37,2013-10-09 07:00:00,
2013-10-09 03:10:00,41.0,41.0,30.38,NNE,14,0.0,0.0,100,0.00,CLR,,0.00,WeatherDisplay:10.37,2013-10-09 07:10:00,
2013-10-09 03:15:00,40.9,40.9,30.38,NNE,14,0.0,0.0,100,0.00,CLR,,0.00,WeatherDisplay:10.37,2013-10-09 07:15:00,
2013-10-09 03:25:00,40.9,40.9,30.39,NNE,14,0.0,0.0,100,0.00,CLR,,0.00,WeatherDisplay:10.37,2013-10-09 07:25:00,
2013-10-09 03:30:00,40.7,40.7,30.39,NNE,14,0.0,0.0,100,0.00,CLR,,0.00,WeatherDisplay:10.37,2013-10-09 07:30:00,
2013-10-09 03:40:00,40.5,40.5,30.40,NNE,14,0.0,0.0,100,0.00,CLR,,0.00,WeatherDisplay:10.37,2013-10-09 07:40:00,
2013-10-09 03:45:00,40.4,40.4,30.40,NNE,14,0.0,0.0,100,0.00,CLR,,0.00,WeatherDisplay:10.37,2013-10-09 07:45:00,
2013-10-09 03:55:00,40.1,40.1,30.40,NNE,14,0.0,0.0,100,0.00,CLR,,0.00,WeatherDisplay:10.37,2013-10-09 07:55:00,
2013-10-09 04:00:00,39.9,39.9,30.40,NNE,14,0.0,0.0,100,0.00,CLR,,0.00,WeatherDisplay:10.37,2013-10-09 08:00:00,
2013-10-09 04:10:00,39.6,39.6,30.40,NNE,14,0.0,0.0,100,0.00,CLR,,0.00,WeatherDisplay:10.37,2013-10-09 08:10:00,
2013-10-09 04:15:00,39.5,39.5,30.40,NNE,14,0.0,0.0,100,0.00,CLR,,0.00,WeatherDisplay:10.37,2013-10-09 08:15:00,
2013-10-09 04:25:00,39.3,39.3,30.41,NNE,14,0.0,0.0,100,0.00,CLR,,0.00,WeatherDisplay:10.37,2013-10-09 08:25:00,
2013-10-09 04:30:00,39.1,39.1,30.41,NNE,14,0.0,0.0,100,0.00,CLR,,0.00,WeatherDisplay:10.37,2013-10-09 08:30:00,
2013-10-09 04:40:00,38.9,38.9,30.41,NNE,14,0.0,0.0,100,0.00,CLR,,0.00,WeatherDisplay:10.37,2013-10-09 08:40:00,
2013-10-09 04:45:00,39.0,39.0,30.41,NNE,14,0.0,0.0,100,0.00,CLR,,0.00,WeatherDisplay:10.37,2013-10-09 08:45:00,
2013-10-09 04:55:00,39.0,39.0,30.42,NNE,14,0.0,0.0,100,0.00,CLR,,0.00,WeatherDisplay:10.37,2013-10-09 08:55:00,
2013-10-09 05:00:00,38.9,38.9,30.41,NNE,14,0.0,0.0,100,0.00,CLR,,0.00,WeatherDisplay:10.37,2013-10-09 09:00:00,
2013-10-09 05:10:00,38.8,38.8,30.42,NNE,14,0.0,0.0,100,0.00,CLR,,0.00,WeatherDisplay:10.37,2013-10-09 09:10:00,
2013-10-09 05:15:00,38.7,38.7,30.42,NNE,14,0.0,0.0,100,0.00,CLR,,0.00,WeatherDisplay:10.37,2013-10-09 09:15:00,
2013-10-09 05:25:00,38.5,38.5,30.42,NNE,14,0.0,0.0,100,0.00,CLR,,0.00,WeatherDisplay:10.37,2013-10-09 09:25:00,
2013-10-09 05:30:00,38.4,38.4,30.42,NNE,14,0.0,0.0,100,0.00,CLR,,0.00,WeatherDisplay:10.37,2013-10-09 09:30:00,
2013-10-09 05:40:00,38.2,38.2,30.41,NNE,14,0.0,0.0,100,0.00,CLR,,0.00,WeatherDisplay:10.37,2013-10-09 09:40:00,
2013-10-09 05:45:00,38.1,38.1,30.42,NNE,14,0.0,0.0,100,0.00,CLR,,0.00,WeatherDisplay:10.37,2013-10-09 09:45:00,
2013-10-09 05:55:00,38.0,38.0,30.42,NNE,14,0.0,0.0,100,0.00,CLR,,0.00,WeatherDisplay:10.37,2013-10-09 09:55:00,
2013-10-09 06:00:00,38.0,38.0,30.42,NNE,14,0.0,0.0,100,0.00,CLR,,0.00,WeatherDisplay:10.37,2013-10-09 10:00:00,
2013-10-09 06:10:00,38.0,38.0,30.42,NNE,14,0.0,0.0,100,0.00,CLR,,0.00,WeatherDisplay:10.37,2013-10-09 10:10:00,
2013-10-09 06:15:00,38.0,38.0,30.42,NNE,14,0.0,0.0,100,0.00,CLR,,0.00,WeatherDisplay:10.37,2013-10-09 10:15:00,
2013-10-09 06:25:00,37.9,37.9,30.43,NNE,14,0.0,0.0,100,0.00,CLR,,0.00,WeatherDisplay:10.37,2013-10-09 10:25:00,
2013-10-09 06:30:00,37.9,37.9,30.43,NNE,14,0.0,0.0,100,0.00,CLR,,0.00,WeatherDisplay:10.37,2013-10-09 10:30:00,
2013-10-09 06:40:00,37.8,37.8,30.43,NNE,14,0.0,0.0,100,0.00,CLR,,0.00,WeatherDisplay:10.37,2013-10-09 10:40:00,
2013-10-09 06:45:00,37.7,37.7,30.43,NNE,14,0.0,0.0,100,0.00,CLR,,0.00,WeatherDisplay:10.37,2013-10-09 10:45:00,
2013-10-09 06:55:00,37.6,37.6,30.43,NNE,14,0.0,0.0,100,0.00,CLR,,0.00,WeatherDisplay:10.37,2013-10-09 10:55:00,
2013-10-09 07:00:00,37.6,37.6,30.43,NNE,14,0.0,0.0,100,0.00,CLR,,0.00,WeatherDisplay:10.37,2013-10-09 11:00:00,
2013-10-09 07:10:00,37.3,37.3,30.43,NNE,14,0.0,0.0,100,0.00,CLR,,0.00,WeatherDisplay:10.37,2013-10-09 11:10:00,
2013-10-09 07:15:00,37.3,37.3,30.44,NNE,14,0.0,0.0,100,0.00,CLR,,0.00,WeatherDisplay:10.37,2013-10-09 11:15:00,
2013-10-09 07:25:00,37.3,37.3,30.44,NNE,14,0.0,0.0,100,0.00,CLR,,0.00,WeatherDisplay:10.37,2013-10-09 11:25:00,
2013-10-09 07:30:00,37.3,37.3,30.44,NNE,14,0.0,0.0,100,0.00,CLR,,0.00,WeatherDisplay:10.37,2013-10-09 11:30:00,
2013-10-09 07:40:00,37.4,37.4,30.44,NNE,14,0.0,0.0,100,0.00,CLR,,0.00,WeatherDisplay:10.37,2013-10-09 11:40:00,
2013-10-09 07:45:00,37.4,37.4,30.45,NNE,14,0.0,0.0,100,0.00,CLR,,0.00,WeatherDisplay:10.37,2013-10-09 11:45:00,
2013-10-09 07:55:00,37.4,37.4,30.45,NNE,14,0.0,0.0,100,0.00,CLR,,0.00,WeatherDisplay:10.37,2013-10-09 11:55:00,
2013-10-09 08:00:00,37.6,37.6,30.45,NNE,14,0.0,0.0,100,0.00,CLR,,0.00,WeatherDisplay:10.37,2013-10-09 12:00:00,
2013-10-09 08:10:00,38.1,38.1,30.45,NNE,14,0.0,0.0,100,0.00,CLR,,0.00,WeatherDisplay:10.37,2013-10-09 12:10:00,
2013-10-09 08:15:00,38.5,38.5,30.45,NNE,14,0.0,0.0,100,0.00,CLR,,0.00,WeatherDisplay:10.37,2013-10-09 12:15:00,
2013-10-09 08:25:00,39.7,39.7,30.45,NNE,14,0.0,0.0,100,0.00,CLR,,0.00,WeatherDisplay:10.37,2013-10-09 12:25:00,
2013-10-09 08:30:00,40.3,40.3,30.45,NNE,14,0.0,0.0,100,0.00,CLR,,0.00,WeatherDisplay:10.37,2013-10-09 12:30:00,
2013-10-09 08:40:00,41.6,41.6,30.45,NNE,14,0.0,0.0,100,0.00,CLR,,0.00,WeatherDisplay:10.37,2013-10-09 12:40:00,
2013-10-09 08:45:00,42.4,42.4,30.45,NNE,14,0.0,0.0,100,0.00,CLR,,0.00,WeatherDisplay:10.37,2013-10-09 12:45:00,
2013-10-09 08:55:00,43.9,43.9,30.45,NNE,14,0.0,0.0,100,0.00,CLR,,0.00,WeatherDisplay:10.37,2013-10-09 12:55:00,
2013-10-09 09:00:00,44.4,44.4,30.45,NNE,14,0.0,0.0,100,0.00,CLR,,0.00,WeatherDisplay:10.37,2013-10-09 13:00:00,
2013-10-09 09:05:00,45.2,45.2,30.45,NNE,14,0.0,0.0,100,0.00,CLR,,0.00,WeatherDisplay:10.37,2013-10-09 13:05:00,
2013-10-09 09:10:00,45.9,45.9,30.45,NNE,14,0.0,0.0,100,0.00,CLR,,0.00,WeatherDisplay:10.37,2013-10-09 13:10:00,
2013-10-09 09:15:00,46.5,46.5,30.45,NNE,14,0.0,0.0,100,0.00,CLR,,0.00,WeatherDisplay:10.37,2013-10-09 13:15:00,
2013-10-09 09:25:00,47.6,46.7,30.46,NNE,14,0.0,0.0,97,0.00,CLR,,0.00,WeatherDisplay:10.37,2013-10-09 13:25:00,
2013-10-09 09:30:00,47.9,46.6,30.46,NNE,14,0.0,0.0,95,0.00,CLR,,0.00,WeatherDisplay:10.37,2013-10-09 13:30:00,
2013-10-09 09:40:00,48.7,46.8,30.46,NNE,14,0.0,0.0,93,0.00,CLR,,0.00,WeatherDisplay:10.37,2013-10-09 13:40:00,
2013-10-09 09:45:00,49.5,47.5,30.46,NNE,14,0.0,0.0,93,0.00,CLR,,0.00,WeatherDisplay:10.37,2013-10-09 13:45:00,
2013-10-09 09:55:00,50.2,47.7,30.46,NNE,14,0.0,0.0,91,0.00,CLR,,0.00,WeatherDisplay:10.37,2013-10-09 13:55:00,
2013-10-09 10:00:00,50.6,48.4,30.46,NNE,14,0.0,0.0,92,0.00,CLR,,0.00,WeatherDisplay:10.37,2013-10-09 14:00:00,
2013-10-09 10:10:00,51.3,48.8,30.46,WNW,296,0.0,0.0,91,0.00,CLR,,0.00,WeatherDisplay:10.37,2013-10-09 14:10:00,
2013-10-09 10:15:00,51.7,48.9,30.46,WNW,292,0.0,0.0,90,0.00,CLR,,0.00,WeatherDisplay:10.37,2013-10-09 14:15:00,
2013-10-09 10:25:00,52.3,48.8,30.46,WNW,292,0.0,2.0,88,0.00,CLR,,0.00,WeatherDisplay:10.37,2013-10-09 14:25:00,
2013-10-09 10:30:00,52.8,49.7,30.46,NNW,337,0.0,2.0,89,0.00,CLR,,0.00,WeatherDisplay:10.37,2013-10-09 14:30:00,
2013-10-09 10:40:00,53.4,49.9,30.46,North,4,0.0,0.0,88,0.00,CLR,,0.00,WeatherDisplay:10.37,2013-10-09 14:40:00,
2013-10-09 10:45:00,53.7,50.3,30.46,North,8,0.0,5.0,88,0.00,CLR,,0.00,WeatherDisplay:10.37,2013-10-09 14:45:00,
2013-10-09 10:55:00,54.4,49.0,30.46,North,5,1.0,6.0,82,0.00,CLR,,0.00,WeatherDisplay:10.37,2013-10-09 14:55:00,
2013-10-09 11:00:00,54.6,49.9,30.46,North,2,0.0,0.0,84,0.00,CLR,,0.00,WeatherDisplay:10.37,2013-10-09 15:00:00,
2013-10-09 11:10:00,55.9,49.9,30.46,West,278,0.0,0.0,80,0.00,CLR,,0.00,WeatherDisplay:10.37,2013-10-09 15:10:00,
2013-10-09 11:15:00,56.8,48.9,30.46,WSW,242,1.0,6.0,75,0.00,CLR,,0.00,WeatherDisplay:10.37,2013-10-09 15:15:00,
2013-10-09 11:25:00,58.5,51.0,30.45,WSW,237,0.0,7.0,76,0.00,CLR,,0.00,WeatherDisplay:10.37,2013-10-09 15:25:00,
2013-10-09 11:30:00,58.9,49.2,30.45,WSW,237,1.0,9.0,70,0.00,CLR,,0.00,WeatherDisplay:10.37,2013-10-09 15:30:00,
2013-10-09 11:40:00,58.9,47.6,30.45,SSW,201,1.0,9.0,66,0.00,CLR,,0.00,WeatherDisplay:10.37,2013-10-09 15:40:00,
2013-10-09 11:45:00,58.8,48.3,30.46,SW,219,0.0,9.0,68,0.00,CLR,,0.00,WeatherDisplay:10.37,2013-10-09 15:45:00,
2013-10-09 11:55:00,58.9,48.7,30.46,SW,236,8.0,12.0,69,0.00,CLR,,0.00,WeatherDisplay:10.37,2013-10-09 15:55:00,
2013-10-09 12:00:00,59.0,48.9,30.46,SW,233,1.0,9.0,69,0.00,CLR,,0.00,WeatherDisplay:10.37,2013-10-09 16:00:00,
2013-10-09 12:10:00,59.2,49.4,30.45,South,180,1.0,7.0,70,0.00,CLR,,0.00,WeatherDisplay:10.37,2013-10-09 16:10:00,
2013-10-09 12:15:00,59.3,49.9,30.45,SW,232,2.0,8.0,71,0.00,CLR,,0.00,WeatherDisplay:10.37,2013-10-09 16:15:00,
2013-10-09 12:25:00,59.1,49.0,30.45,South,175,8.0,13.0,69,0.00,CLR,,0.00,WeatherDisplay:10.37,2013-10-09 16:25:00,
2013-10-09 12:30:00,58.9,48.7,30.44,SSE,167,5.0,10.0,69,0.00,CLR,,0.00,WeatherDisplay:10.37,2013-10-09 16:30:00,
2013-10-09 12:40:00,59.2,49.4,30.44,SW,218,6.0,10.0,70,0.00,CLR,,0.00,WeatherDisplay:10.37,2013-10-09 16:40:00,
2013-10-09 12:45:00,59.0,47.2,30.44,South,186,2.0,9.0,65,0.00,CLR,,0.00,WeatherDisplay:10.37,2013-10-09 16:45:00,
2013-10-09 12:55:00,58.9,49.5,30.44,SSW,207,2.0,8.0,71,0.00,CLR,,0.00,WeatherDisplay:10.37,2013-10-09 16:55:00,
2013-10-09 13:00:00,59.1,48.1,30.44,South,179,0.0,7.0,67,0.00,CLR,,0.00,WeatherDisplay:10.37,2013-10-09 17:00:00,
2013-10-09 13:10:00,59.3,48.7,30.44,ESE,120,0.0,0.0,68,0.00,CLR,,0.00,WeatherDisplay:10.37,2013-10-09 17:10:00,
2013-10-09 13:15:00,59.5,47.7,30.43,ESE,117,1.0,5.0,65,0.00,CLR,,0.00,WeatherDisplay:10.37,2013-10-09 17:15:00,
2013-10-09 13:25:00,59.4,46.4,30.43,SE,125,0.0,0.0,62,0.00,CLR,,0.00,WeatherDisplay:10.37,2013-10-09 17:25:00,
2013-10-09 13:30:00,59.1,47.0,30.43,SE,137,1.0,7.0,64,0.00,CLR,,0.00,WeatherDisplay:10.37,2013-10-09 17:30:00,
2013-10-09 13:40:00,59.0,48.4,30.42,WSW,239,2.0,7.0,68,0.00,CLR,,0.00,WeatherDisplay:10.37,2013-10-09 17:40:00,
2013-10-09 13:45:00,59.3,47.9,30.42,WSW,245,1.0,7.0,66,0.00,CLR,,0.00,WeatherDisplay:10.37,2013-10-09 17:45:00,
2013-10-09 13:55:00,59.4,50.0,30.42,WSW,237,1.0,8.0,71,0.00,CLR,,0.00,WeatherDisplay:10.37,2013-10-09 17:55:00,
2013-10-09 14:00:00,59.6,47.4,30.41,SW,219,1.0,7.0,64,0.00,CLR,,0.00,WeatherDisplay:10.37,2013-10-09 18:00:00,
2013-10-09 14:10:00,59.7,50.7,30.41,SSE,168,0.0,7.0,72,0.00,CLR,,0.00,WeatherDisplay:10.37,2013-10-09 18:10:00,
2013-10-09 14:15:00,59.9,48.9,30.41,South,189,3.0,8.0,67,0.00,CLR,,0.00,WeatherDisplay:10.37,2013-10-09 18:15:00,
2013-10-09 14:25:00,60.0,48.2,30.41,SSW,196,0.0,7.0,65,0.00,CLR,,0.00,WeatherDisplay:10.37,2013-10-09 18:25:00,
2013-10-09 14:30:00,59.9,49.3,30.41,South,189,1.0,8.0,68,0.00,CLR,,0.00,WeatherDisplay:10.37,2013-10-09 18:30:00,
2013-10-09 14:40:00,60.0,49.8,30.41,South,187,5.0,9.0,69,0.00,CLR,,0.00,WeatherDisplay:10.37,2013-10-09 18:40:00,
2013-10-09 14:45:00,60.0,49.8,30.41,South,191,3.0,7.0,69,0.00,CLR,,0.00,WeatherDisplay:10.37,2013-10-09 18:45:00,
2013-10-09 14:55:00,60.2,49.2,30.40,SW,229,0.0,7.0,67,0.00,CLR,,0.00,WeatherDisplay:10.37,2013-10-09 18:55:00,
2013-10-09 15:00:00,60.2,48.8,30.41,SW,219,0.0,5.0,66,0.00,CLR,,0.00,WeatherDisplay:10.37,2013-10-09 19:00:00,
2013-10-09 15:10:00,59.8,48.4,30.41,SSW,202,0.0,7.0,66,0.00,CLR,,0.00,WeatherDisplay:10.37,2013-10-09 19:10:00,
2013-10-09 15:15:00,59.7,47.9,30.42,SSE,160,5.0,7.0,65,0.00,CLR,,0.00,WeatherDisplay:10.37,2013-10-09 19:15:00,
2013-10-09 15:25:00,59.7,48.7,30.44,SSW,202,0.0,5.0,67,0.00,CLR,,0.00,WeatherDisplay:10.37,2013-10-09 19:25:00,
2013-10-09 15:30:00,59.7,48.7,30.45,South,173,0.0,5.0,67,0.00,CLR,,0.00,WeatherDisplay:10.37,2013-10-09 19:30:00,
2013-10-09 15:40:00,59.9,49.3,30.46,West,260,0.0,5.0,68,0.00,CLR,,0.00,WeatherDisplay:10.37,2013-10-09 19:40:00,
2013-10-09 15:45:00,59.9,49.7,30.45,WSW,254,0.0,0.0,69,0.00,CLR,,0.00,WeatherDisplay:10.37,2013-10-09 19:45:00,
2013-10-09 15:55:00,60.0,48.6,30.43,WSW,254,0.0,0.0,66,0.00,CLR,,0.00,WeatherDisplay:10.37,2013-10-09 19:55:00,
2013-10-09 16:00:00,60.1,48.7,30.42,SW,215,1.0,5.0,66,0.00,CLR,,0.00,WeatherDisplay:10.37,2013-10-09 20:00:00,
2013-10-09 16:10:00,60.1,47.8,30.41,SE,134,0.0,0.0,64,0.00,CLR,,0.00,WeatherDisplay:10.37,2013-10-09 20:10:00,
2013-10-09 16:15:00,60.0,47.4,30.41,SE,134,0.0,0.0,63,0.00,CLR,,0.00,WeatherDisplay:10.37,2013-10-09 20:15:00,
2013-10-09 16:25:00,59.8,48.4,30.40,East,96,0.0,5.0,66,0.00,CLR,,0.00,WeatherDisplay:10.37,2013-10-09 20:25:00,
2013-10-09 16:30:00,59.7,47.9,30.40,NE,50,0.0,3.0,65,0.00,CLR,,0.00,WeatherDisplay:10.37,2013-10-09 20:30:00,
2013-10-09 16:40:00,59.4,47.2,30.40,ESE,115,0.0,5.0,64,0.00,CLR,,0.00,WeatherDisplay:10.37,2013-10-09 20:40:00,
2013-10-09 16:45:00,59.3,47.9,30.40,SSE,161,0.0,7.0,66,0.00,CLR,,0.00,WeatherDisplay:10.37,2013-10-09 20:45:00,
2013-10-09 16:55:00,58.9,48.0,30.40,SE,142,0.0,0.0,67,0.00,CLR,,0.00,WeatherDisplay:10.37,2013-10-09 20:55:00,
2013-10-09 17:00:00,58.8,47.9,30.40,SE,129,0.0,3.0,67,0.00,CLR,,0.00,WeatherDisplay:10.37,2013-10-09 21:00:00,
2013-10-09 17:10:00,58.4,48.7,30.40,SE,143,0.0,0.0,70,0.00,CLR,,0.00,WeatherDisplay:10.37,2013-10-09 21:10:00,
2013-10-09 17:15:00,58.3,50.4,30.40,SE,143,0.0,0.0,75,0.00,CLR,,0.00,WeatherDisplay:10.37,2013-10-09 21:15:00,
2013-10-09 17:25:00,57.8,51.0,30.39,SE,143,0.0,0.0,78,0.00,CLR,,0.00,WeatherDisplay:10.37,2013-10-09 21:25:00,
2013-10-09 17:30:00,57.5,50.6,30.39,SE,143,0.0,0.0,78,0.00,CLR,,0.00,WeatherDisplay:10.37,2013-10-09 21:30:00,
2013-10-09 17:40:00,56.3,50.9,30.39,SE,143,0.0,0.0,82,0.00,CLR,,0.00,WeatherDisplay:10.37,2013-10-09 21:40:00,
2013-10-09 17:45:00,55.7,50.9,30.38,SE,143,0.0,0.0,84,0.00,CLR,,0.00,WeatherDisplay:10.37,2013-10-09 21:45:00,
2013-10-09 17:55:00,54.5,50.1,30.38,SE,143,0.0,0.0,85,0.00,CLR,,0.00,WeatherDisplay:10.37,2013-10-09 21:55:00,
2013-10-09 18:00:00,54.1,50.0,30.37,SE,143,0.0,0.0,86,0.00,CLR,,0.00,WeatherDisplay:10.37,2013-10-09 22:00:00,
2013-10-09 18:10:00,53.0,49.6,30.38,SE,143,0.0,0.0,88,0.00,CLR,,0.00,WeatherDisplay:10.37,2013-10-09 22:10:00,
2013-10-09 18:15:00,52.7,49.0,30.38,SE,143,0.0,0.0,87,0.00,CLR,,0.00,WeatherDisplay:10.37,2013-10-09 22:15:00,
2013-10-09 18:25:00,52.1,48.6,30.38,SE,143,0.0,0.0,88,0.00,CLR,,0.00,WeatherDisplay:10.37,2013-10-09 22:25:00,
2013-10-09 18:30:00,51.8,48.7,30.38,SE,143,0.0,0.0,89,0.00,CLR,,0.00,WeatherDisplay:10.37,2013-10-09 22:30:00,
2013-10-09 18:40:00,51.1,48.8,30.38,SE,143,0.0,0.0,92,0.00,CLR,,0.00,WeatherDisplay:10.37,2013-10-09 22:40:00,
2013-10-09 18:45:00,50.7,48.5,30.38,SE,143,0.0,0.0,92,0.00,CLR,,0.00,WeatherDisplay:10.37,2013-10-09 22:45:00,
2013-10-09 18:55:00,50.3,48.7,30.38,SE,143,0.0,0.0,94,0.00,CLR,,0.00,WeatherDisplay:10.37,2013-10-09 22:55:00,
2013-10-09 19:00:00,50.2,48.6,30.38,SE,143,0.0,0.0,94,0.00,CLR,,0.00,WeatherDisplay:10.37,2013-10-09 23:00:00,
2013-10-09 19:10:00,50.0,48.3,30.38,SE,143,0.0,0.0,94,0.00,CLR,,0.00,WeatherDisplay:10.37,2013-10-09 23:10:00,
2013-10-09 19:15:00,50.0,48.3,30.38,SE,143,0.0,0.0,94,0.00,CLR,,0.00,WeatherDisplay:10.37,2013-10-09 23:15:00,
2013-10-09 19:25:00,49.9,48.2,30.38,SE,143,0.0,0.0,94,0.00,CLR,,0.00,WeatherDisplay:10.37,2013-10-09 23:25:00,
2013-10-09 19:30:00,49.8,48.1,30.38,SE,143,0.0,0.0,94,0.00,CLR,,0.00,WeatherDisplay:10.37,2013-10-09 23:30:00,
2013-10-09 19:40:00,49.5,47.9,30.38,SE,143,0.0,0.0,94,0.00,CLR,,0.00,WeatherDisplay:10.37,2013-10-09 23:40:00,
2013-10-09 19:45:00,49.4,47.8,30.38,SE,143,0.0,0.0,94,0.00,CLR,,0.00,WeatherDisplay:10.37,2013-10-09 23:45:00,
2013-10-09 19:55:00,49.3,47.6,30.37,SE,143,0.0,0.0,94,0.00,CLR,,0.00,WeatherDisplay:10.37,2013-10-09 23:55:00,
2013-10-09 20:00:00,49.3,47.9,30.37,SE,143,0.0,0.0,95,0.00,CLR,,0.00,WeatherDisplay:10.37,2013-10-10 00:00:00,
2013-10-09 20:10:00,49.2,47.5,30.37,SE,143,0.0,0.0,94,0.00,CLR,,0.00,WeatherDisplay:10.37,2013-10-10 00:10:00,
2013-10-09 20:15:00,49.0,47.3,30.37,SE,143,0.0,0.0,94,0.00,CLR,,0.00,WeatherDisplay:10.37,2013-10-10 00:15:00,
2013-10-09 20:25:00,48.6,47.2,30.37,SE,143,0.0,0.0,95,0.00,CLR,,0.00,WeatherDisplay:10.37,2013-10-10 00:25:00,
2013-10-09 20:30:00,48.4,47.0,30.37,SE,143,0.0,0.0,95,0.00,CLR,,0.00,WeatherDisplay:10.37,2013-10-10 00:30:00,
2013-10-09 20:40:00,48.0,46.9,30.37,SE,143,0.0,0.0,96,0.00,CLR,,0.00,WeatherDisplay:10.37,2013-10-10 00:40:00,
2013-10-09 20:45:00,47.9,47.1,30.37,SE,143,0.0,0.0,97,0.00,CLR,,0.00,WeatherDisplay:10.37,2013-10-10 00:45:00,
2013-10-09 20:50:00,47.8,46.9,30.37,SE,143,0.0,0.0,97,0.00,CLR,,0.00,WeatherDisplay:10.37,2013-10-10 00:50:00,
2013-10-09 21:00:00,47.5,46.9,30.38,SE,143,0.0,0.0,98,0.00,CLR,,0.00,WeatherDisplay:10.37,2013-10-10 01:00:00,
2013-10-09 21:10:00,47.2,46.9,30.37,SE,143,0.0,0.0,99,0.00,CLR,,0.00,WeatherDisplay:10.37,2013-10-10 01:10:00,
2013-10-09 21:15:00,47.0,46.7,30.38,SE,143,0.0,0.0,99,0.00,CLR,,0.00,WeatherDisplay:10.37,2013-10-10 01:15:00,
2013-10-09 21:25:00,46.8,46.8,30.37,SE,143,0.0,0.0,100,0.00,CLR,,0.00,WeatherDisplay:10.37,2013-10-10 01:25:00,
2013-10-09 21:30:00,46.8,46.8,30.37,SE,143,0.0,0.0,100,0.00,CLR,,0.00,WeatherDisplay:10.37,2013-10-10 01:30:00,
2013-10-09 21:40:00,46.7,46.7,30.37,SE,143,0.0,0.0,100,0.00,CLR,,0.00,WeatherDisplay:10.37,2013-10-10 01:40:00,
2013-10-09 21:45:00,46.6,46.6,30.37,SE,143,0.0,0.0,100,0.00,CLR,,0.00,WeatherDisplay:10.37,2013-10-10 01:45:00,
2013-10-09 21:55:00,46.6,46.6,30.37,SE,143,0.0,0.0,100,0.00,CLR,,0.00,WeatherDisplay:10.37,2013-10-10 01:55:00,
2013-10-09 22:00:00,46.7,46.7,30.37,SE,143,0.0,0.0,100,0.00,CLR,,0.00,WeatherDisplay:10.37,2013-10-10 02:00:00,
2013-10-09 22:10:00,46.3,46.3,30.37,SE,143,0.0,0.0,100,0.00,CLR,,0.00,WeatherDisplay:10.37,2013-10-10 02:10:00,
2013-10-09 22:15:00,46.2,46.2,30.37,SE,143,0.0,0.0,100,0.00,CLR,,0.00,WeatherDisplay:10.37,2013-10-10 02:15:00,
2013-10-09 22:25:00,46.2,46.2,30.37,SE,143,0.0,0.0,100,0.00,CLR,,0.00,WeatherDisplay:10.37,2013-10-10 02:25:00,
2013-10-09 22:30:00,46.3,46.3,30.37,SE,143,0.0,0.0,100,0.00,CLR,,0.00,WeatherDisplay:10.37,2013-10-10 02:30:00,
2013-10-09 22:40:00,46.9,46.9,30.37,SSE,147,0.0,5.0,100,0.00,CLR,,0.00,WeatherDisplay:10.37,2013-10-10 02:40:00,
2013-10-09 22:45:00,47.2,47.2,30.37,SSE,150,0.0,0.0,100,0.00,CLR,,0.00,WeatherDisplay:10.37,2013-10-10 02:45:00,
2013-10-09 22:55:00,47.3,47.3,30.37,SSE,148,0.0,0.0,100,0.00,CLR,,0.00,WeatherDisplay:10.37,2013-10-10 02:55:00,
2013-10-09 23:00:00,47.2,47.2,30.37,SSE,148,0.0,0.0,100,0.00,CLR,,0.00,WeatherDisplay:10.37,2013-10-10 03:00:00,
2013-10-09 23:10:00,47.0,47.0,30.37,SSE,148,0.0,0.0,100,0.00,CLR,,0.00,WeatherDisplay:10.37,2013-10-10 03:10:00,
2013-10-09 23:15:00,46.8,46.8,30.36,SSE,148,0.0,0.0,100,0.00,CLR,,0.00,WeatherDisplay:10.37,2013-10-10 03:15:00,
2013-10-09 23:25:00,46.1,46.1,30.36,SSE,148,0.0,0.0,100,0.00,CLR,,0.00,WeatherDisplay:10.37,2013-10-10 03:25:00,
2013-10-09 23:30:00,45.9,45.9,30.36,SSE,148,0.0,0.0,100,0.00,CLR,,0.00,WeatherDisplay:10.37,2013-10-10 03:30:00,
2013-10-09 23:40:00,45.8,45.8,30.36,SSE,148,0.0,0.0,100,0.00,CLR,,0.00,WeatherDisplay:10.37,2013-10-10 03:40:00,
2013-10-09 23:45:00,45.7,45.7,30.36,SSE,148,0.0,0.0,100,0.00,CLR,,0.00,WeatherDisplay:10.37,2013-10-10 03:45:00,
2013-10-09 23:55:00,45.6,45.6,30.35,SSE,148,0.0,0.0,100,0.00,CLR,,0.00,WeatherDisplay:10.37,2013-10-10 03:55:00,